When you browse on this site, cookies collect data to enhance your experience and personalize the content and advertising you see.
Visit our Privacy Policy to learn more. By continuing to use the site, you agree to this use of cookies and data.
  • In Spain
  • List of Countries
  • For 7 days
  • Water Temperature
  • Weather Map
  • Weather Widgets
  • user-avatar
    Login

    Hourly Weather Zaleschiki

    Today, 10 April, Friday

    Time Temperature Precipitation Wind Pressure Humidity
    00:00 +10°C° 0 mm 3 mps 737 mmHg 95%
    01:00 +9°C° 0 mm 3 mps 736 mmHg 95%
    02:00 +10°C° 0 mm 2 mps 736 mmHg 64%
    03:00 +8°C° 0 mm 4 mps 736 mmHg 81%
    04:00 +7°C° 0 mm 4 mps 736 mmHg 86%
    05:00 +6°C° 0 mm 4 mps 736 mmHg 89%
    06:00 +6°C° 0 mm 5 mps 736 mmHg 89%
    07:00 +6°C° 0 mm 5 mps 737 mmHg 92%
    08:00 +8°C° 0 mm 5 mps 738 mmHg 90%
    09:00 +9°C° 0 mm 5 mps 738 mmHg 87%
    10:00 +10°C° 0 mm 6 mps 739 mmHg 84%
    11:00 +10°C° 0 mm 7 mps 739 mmHg 75%
    12:00 +10°C° 0 mm 7 mps 740 mmHg 68%
    13:00 +10°C° 0 mm 7 mps 740 mmHg 64%
    14:00 +11°C° 0 mm 7 mps 740 mmHg 60%
    15:00 +10°C° 0 mm 7 mps 740 mmHg 61%
    16:00 +10°C° 0 mm 6 mps 739 mmHg 60%
    17:00 +9°C° 0 mm 6 mps 740 mmHg 60%
    18:00 +8°C° 0 mm 6 mps 740 mmHg 62%
    19:00 +7°C° 0 mm 5 mps 740 mmHg 66%
    20:00 +7°C° 0 mm 3 mps 741 mmHg 74%
    21:00 +5°C° 0 mm 3 mps 741 mmHg 80%
    22:00 +5°C° 0 mm 2 mps 741 mmHg 84%
    23:00 +4°C° 0 mm 2 mps 741 mmHg 89%

    Tomorrow, 11 April, Saturday

    Time Temperature Precipitation Wind Pressure Humidity
    00:00 +3°C° 0 mm 2 mps 741 mmHg 91%
    01:00 +3°C° 0 mm 2 mps 741 mmHg 91%
    02:00 +3°C° 0 mm 2 mps 741 mmHg 91%
    03:00 +2°C° 0 mm 2 mps 741 mmHg 92%
    04:00 +3°C° 0 mm 2 mps 741 mmHg 92%
    05:00 +3°C° 0 mm 2 mps 741 mmHg 92%
    06:00 +2°C° 0 mm 2 mps 741 mmHg 92%
    07:00 +4°C° 0 mm 1 mps 741 mmHg 89%
    08:00 +6°C° 0 mm 1 mps 742 mmHg 87%
    09:00 +7°C° 0 mm 2 mps 742 mmHg 76%
    10:00 +9°C° 0 mm 2 mps 743 mmHg 67%
    11:00 +10°C° 0 mm 2 mps 743 mmHg 61%
    12:00 +10°C° 0 mm 3 mps 743 mmHg 62%
    13:00 +11°C° 0 mm 3 mps 743 mmHg 62%
    14:00 +10°C° 0 mm 4 mps 743 mmHg 72%
    15:00 +11°C° 0 mm 4 mps 743 mmHg 68%
    16:00 +11°C° 0 mm 3 mps 742 mmHg 64%
    17:00 +10°C° 0 mm 4 mps 743 mmHg 75%
    18:00 +10°C° 0.2 mm 1 mps 742 mmHg 83%
    19:00 +8°C° 0 mm 0 mps 743 mmHg 85%
    20:00 +9°C° 0 mm 1 mps 743 mmHg 85%
    21:00 +7°C° 0 mm 2 mps 743 mmHg 91%
    22:00 +6°C° 0 mm 2 mps 744 mmHg 94%
    23:00 +5°C° 0 mm 2 mps 744 mmHg 93%

    Day after tomorrow, 12 April, Sunday

    Time Temperature Precipitation Wind Pressure Humidity
    00:00 +4°C° 0 mm 2 mps 744 mmHg 95%
    01:00 +5°C° 0 mm 1 mps 744 mmHg 96%
    02:00 +3°C° 0 mm 2 mps 744 mmHg 96%
    03:00 +2°C° 0 mm 2 mps 744 mmHg 97%
    04:00 +2°C° 0 mm 2 mps 744 mmHg 98%
    05:00 +1°C° 0 mm 2 mps 744 mmHg 98%
    06:00 +1°C° 0 mm 2 mps 743 mmHg 99%
    07:00 +2°C° 0 mm 2 mps 744 mmHg 97%
    08:00 +3°C° 0 mm 4 mps 744 mmHg 89%
    09:00 +5°C° 0 mm 5 mps 743 mmHg 82%
    10:00 +7°C° 0 mm 5 mps 743 mmHg 82%
    11:00 +8°C° 0 mm 5 mps 743 mmHg 83%
    12:00 +10°C° 0 mm 4 mps 743 mmHg 82%
    13:00 +12°C° 0 mm 4 mps 742 mmHg 79%
    14:00 +12°C° 0 mm 4 mps 742 mmHg 75%
    15:00 +12°C° 0 mm 4 mps 742 mmHg 74%
    16:00 +13°C° 0 mm 4 mps 741 mmHg 72%
    17:00 +13°C° 0 mm 4 mps 740 mmHg 72%
    18:00 +12°C° 0 mm 5 mps 740 mmHg 79%
    19:00 +11°C° 0 mm 3 mps 739 mmHg 88%
    20:00 +10°C° 0 mm 3 mps 739 mmHg 92%
    21:00 +9°C° 0 mm 2 mps 739 mmHg 95%
    22:00 +8°C° 0 mm 3 mps 738 mmHg 99%
    23:00 +8°C° 0 mm 2 mps 738 mmHg 100%

    13 April, Monday

    Time Temperature Precipitation Wind Pressure Humidity
    00:00 +8°C° 0 mm 2 mps 738 mmHg 100%
    01:00 +9°C° 0 mm 1 mps 737 mmHg 100%
    02:00 +8°C° 0 mm 0 mps 737 mmHg 100%
    03:00 +8°C° 0 mm 1 mps 737 mmHg 100%
    04:00 +8°C° 0 mm 1 mps 736 mmHg 100%
    05:00 +6°C° 0 mm 0 mps 736 mmHg 100%
    06:00 +7°C° 0 mm 1 mps 736 mmHg 100%
    07:00 +7°C° 0 mm 1 mps 736 mmHg 100%
    08:00 +7°C° 0 mm 1 mps 736 mmHg 100%
    09:00 +10°C° 0 mm 1 mps 735 mmHg 93%
    10:00 +12°C° 0 mm 2 mps 735 mmHg 87%
    11:00 +15°C° 0 mm 2 mps 735 mmHg 79%
    12:00 +16°C° 0 mm 2 mps 734 mmHg 71%
    13:00 +17°C° 0 mm 3 mps 734 mmHg 64%
    14:00 +17°C° 0 mm 3 mps 733 mmHg 70%
    15:00 +18°C° 0 mm 2 mps 733 mmHg 69%
    16:00 +17°C° 1 mm 3 mps 731 mmHg 72%
    17:00 +16°C° 0 mm 1 mps 731 mmHg 82%
    18:00 +16°C° 0 mm 1 mps 730 mmHg 84%
    19:00 +15°C° 0 mm 2 mps 730 mmHg 91%
    20:00 +13°C° 0 mm 4 mps 729 mmHg 81%
    21:00 +12°C° 0 mm 3 mps 729 mmHg 88%
    22:00 +12°C° 0 mm 2 mps 728 mmHg 91%
    23:00 +10°C° 0 mm 2 mps 728 mmHg 93%

    14 April, Tuesday

    Time Temperature Precipitation Wind Pressure Humidity
    00:00 +11°C° 0 mm 1 mps 728 mmHg 90%
    01:00 +10°C° 0 mm 3 mps 727 mmHg 90%
    02:00 +10°C° 0 mm 3 mps 726 mmHg 89%
    03:00 +10°C° 0 mm 3 mps 726 mmHg 92%
    04:00 +9°C° 0 mm 3 mps 725 mmHg 93%
    05:00 +9°C° 0 mm 2 mps 725 mmHg 93%
    06:00 +9°C° 0.4 mm 3 mps 725 mmHg 100%
    07:00 +6°C° 2.5 mm 7 mps 727 mmHg 98%
    08:00 +6°C° 0.3 mm 7 mps 728 mmHg 98%
    09:00 +4°C° 0.4 mm 7 mps 728 mmHg 97%
    10:00 +4°C° 0.8 mm 7 mps 729 mmHg 98%
    11:00 +3°C° 1.4 mm 7 mps 730 mmHg 98%
    12:00 +3°C° 0.7 mm 7 mps 730 mmHg 98%
    13:00 +2°C° 1.1 mm 8 mps 731 mmHg 89%
    14:00 +3°C° 0 mm 7 mps 731 mmHg 85%
    15:00 +4°C° 0 mm 7 mps 732 mmHg 75%
    16:00 +4°C° 0 mm 7 mps 732 mmHg 80%
    17:00 +3°C° 0.1 mm 7 mps 732 mmHg 73%
    18:00 +2°C° 0 mm 6 mps 733 mmHg 83%
    19:00 +1°C° 0 mm 5 mps 733 mmHg 86%
    20:00 +1°C° 0 mm 5 mps 734 mmHg 91%
    21:00 0°C° 0 mm 5 mps 734 mmHg 93%
    22:00 -1°C° 0 mm 5 mps 734 mmHg 96%
    23:00 -2°C° 0 mm 6 mps 734 mmHg 98%

    15 April, Wednesday

    Time Temperature Precipitation Wind Pressure Humidity
    00:00 -1°C° 0 mm 5 mps 735 mmHg 97%
    01:00 -1°C° 0 mm 5 mps 735 mmHg 98%
    02:00 -1°C° 0 mm 5 mps 735 mmHg 97%
    03:00 -2°C° 0 mm 5 mps 735 mmHg 98%
    04:00 -2°C° 0 mm 6 mps 735 mmHg 99%
    05:00 -2°C° 0 mm 6 mps 736 mmHg 98%
    06:00 -3°C° 0.1 mm 6 mps 736 mmHg 100%
    07:00 -2°C° 0 mm 7 mps 737 mmHg 90%
    08:00 -2°C° 0 mm 7 mps 737 mmHg 86%
    09:00 -1°C° 0 mm 7 mps 738 mmHg 84%
    10:00 0°C° 0 mm 7 mps 738 mmHg 82%
    11:00 +1°C° 0 mm 6 mps 738 mmHg 82%
    12:00 +2°C° 0 mm 6 mps 738 mmHg 82%
    13:00 +3°C° 0 mm 7 mps 738 mmHg 81%
    14:00 +4°C° 0 mm 7 mps 738 mmHg 79%
    15:00 +4°C° 0 mm 6 mps 738 mmHg 79%
    16:00 +4°C° 0 mm 6 mps 737 mmHg 85%
    17:00 +4°C° 0 mm 6 mps 737 mmHg 81%
    18:00 +5°C° 0 mm 5 mps 737 mmHg 88%
    19:00 +3°C° 0 mm 5 mps 737 mmHg 91%
    20:00 +3°C° 0 mm 4 mps 737 mmHg 96%
    21:00 +3°C° 0 mm 3 mps 737 mmHg 95%
    22:00 +2°C° 0 mm 3 mps 737 mmHg 98%
    23:00 +2°C° 0 mm 3 mps 737 mmHg 97%
    Show more